This is the latest recevied weather packets stored in our database for station/object KB9YVI-11. If no packets are shown the sender has not sent any weather packets the latest 10 day(s).
| Time | Temp. | Humidity | Pressure | Rain* | Wind** | Luminosity | Snow |
|---|---|---|---|---|---|---|---|
| 1777504252 | 15.56° C | 80% | 0 hPa | 0 mm | - | - | - |
| 1777503652 | 16.11° C | 80% | 0 hPa | 0 mm | - | - | - |
| 1777503352 | 16.11° C | 78% | 0 hPa | 0 mm | - | - | - |
| 1777502752 | 16.67° C | 80% | 0 hPa | 0 mm | - | - | - |
| 1777502452 | 16.67° C | 79% | 0 hPa | 0 mm | - | - | - |
| 1777502152 | 16.67° C | 82% | 0 hPa | 0 mm | - | - | - |
| 1777501851 | 16.67° C | 81% | 0 hPa | 0 mm | - | - | - |
| 1777501554 | 17.22° C | 80% | 0 hPa | 0 mm | - | - | - |
| 1777501252 | 17.22° C | 81% | 0 hPa | 0 mm | - | - | - |
| 1777500652 | 17.22° C | 81% | 0 hPa | 0 mm | - | - | - |
| 1777500352 | 17.22° C | 83% | 0 hPa | 0 mm | - | - | - |
| 1777500052 | 17.22° C | 82% | 0 hPa | 0 mm | - | - | - |
| 1777499752 | 16.67° C | 83% | 0 hPa | 0 mm | - | - | - |
| 1777499452 | 16.67° C | 82% | 0 hPa | 0 mm | - | - | - |
| 1777499152 | 17.22° C | 82% | 0 hPa | 0 mm | - | - | - |
| 1777498852 | 17.78° C | 78% | 0 hPa | 0 mm | - | - | - |
| 1777498552 | 17.78° C | 78% | 0 hPa | 0 mm | - | - | - |
| 1777498251 | 17.22° C | 80% | 0 hPa | 0 mm | - | - | - |
| 1777497952 | 17.22° C | 79% | 0 hPa | 0 mm | - | - | - |
| 1777497352 | 16.67° C | 82% | 0 hPa | 0 mm | - | - | - |
| 1777497052 | 16.67° C | 83% | 0 hPa | 0 mm | - | - | - |
| 1777496752 | 16.67° C | 82% | 0 hPa | 0 mm | - | - | - |
| 1777496452 | 17.22° C | 83% | 0 hPa | 0 mm | - | - | - |
| 1777496152 | 17.78° C | 82% | 0 hPa | 0 mm | - | - | - |
| 1777495852 | 18.33° C | 79% | 0 hPa | 0 mm | - | - | - |
* Rain latest hour (hover to see other rain measurements)
** Current wind speed in m/s (hover to see current wind gust speed)